Simultaneous Nadir Overpasses (SNOs) Predictions

Prediction of SNOs between GOES-16 and TERRA Satellite Orbit:

Table of predicted SNOs for the next 14.0 days since TLE Epoch: 9/7/2019
Index Date Time (GOES-16) GOES-16 Lat,Lon TERRA Lat,Lon Distance(km) Time Diff (sec)
1 09/07/2019 03:41:43 0.00, -75.19 -0.51, -77.49 261.73 80
2 09/09/2019 03:26:51 -0.00, -75.20 0.12, -74.53 75.13 80
3 09/11/2019 03:14:39 0.00, -75.21 0.76, -71.58 412.60 80
4 09/11/2019 15:35:55 0.00, -75.22 0.29, -76.74 172.54 80
5 09/13/2019 15:26:22 0.00, -75.24 -0.28, -73.77 165.98 80
6 09/14/2019 03:47:46 -0.00, -75.24 -0.82, -78.96 424.42 80
7 09/16/2019 03:35:34 -0.00, -75.26 -0.18, -76.01 85.18 80
8 09/18/2019 03:20:42 -0.00, -75.29 0.46, -73.05 254.53 80
9 09/18/2019 15:41:58 0.00, -75.31 0.60, -78.22 330.29 80
10 09/20/2019 15:32:26 0.00, -75.34 -0.05, -75.26 10.22 80




NCC Satellite Simultaneous Nadir Overpasses (SNOs) Prediction Service
